Theta_e
307 309 310 312 322 320 327 327 322 321 323 319 320 321 323 329 326 325 334 337 335 336 337 335 332 330 330 329 328 326 324 323 324 323 322 322 321 322 321 320 320 319 319 320 320 318 317 317 316
308 310 310 308 325 328 327 322 323 320 317 313 321 322 329 333 335 335 336 336 336 337 336 333 332 330 329 329 327 325 323 323 323 322 321 321 321 321 319 319 318 319 320 319 317 317 316 315 315
309 309 308 313 319 327 329 324 321 316 312 314 320 326 330 333 334 334 336 335 338 337 334 333 330 329 328 328 326 324 323 323 322 321 321 320 320 319 320 318 318 318 318 318 319 317 316 316 316
307 304 304 313 319 318 323 321 317 314 313 313 322 329 330 331 334 334 335 335 338 335 333 331 329 329 328 327 325 323 323 322 322 321 321 320 319 319 318 318 318 318 318 317 317 315 316 314 315
305 302 309 312 313 312 312 313 314 314 312 312 319 325 334 333 335 336 335 335 335 334 333 330 329 328 327 326 324 323 322 322 321 321 320 320 319 318 318 318 318 319 318 318 317 315 316 315 314
303 302 307 308 310 310 309 309 312 311 310 310 323 331 333 333 335 335 334 335 335 333 331 330 328 328 326 326 323 323 322 322 320 319 319 318 318 318 318 318 319 318 317 316 316 317 315 315 315
304 304 307 308 308 308 309 307 310 311 309 312 323 330 331 334 335 335 334 335 334 333 331 329 328 327 326 324 322 322 322 320 319 318 318 318 317 317 317 317 318 316 316 316 316 316 316 315 315
299 302 306 306 306 308 307 303 306 306 310 309 322 326 328 331 334 334 333 334 333 332 330 328 328 326 325 323 321 320 320 318 317 316 315 312 312 315 315 316 316 315 314 315 315 314 312 312 310
299 302 303 306 306 307 302 305 304 304 305 311 328 327 327 331 333 333 333 332 332 330 329 328 328 325 324 322 320 318 317 314 311 311 309 312 314 314 314 315 314 314 314 314 312 312 312 312 311
301 301 303 303 303 303 304 303 304 305 303 306 319 327 327 331 333 333 332 331 330 329 328 328 327 324 323 321 318 316 312 309 309 312 309 312 313 314 313 314 313 311 312 312 311 312 312 313 312
302 302 302 303 306 303 303 304 302 306 306 305 306 323 328 330 333 333 332 331 329 329 327 328 326 325 323 321 317 314 309 305 310 311 310 312 312 314 313 313 311 310 311 311 312 312 313 315 314
307 304 305 306 304 303 304 302 303 303 305 304 302 307 327 329 332 332 331 330 330 328 327 328 326 325 323 321 317 312 307 305 310 311 310 312 313 314 313 313 311 309 311 312 312 311 314 318 317
305 304 304 303 301 301 301 302 303 303 303 302 301 316 327 328 329 330 331 330 329 328 327 328 326 325 324 322 319 312 306 305 309 310 311 312 312 314 313 312 310 309 311 312 312 312 316 315 316
304 302 301 299 299 300 300 301 301 302 299 299 300 301 315 326 328 329 330 330 329 328 326 328 326 325 325 322 321 316 306 307 308 310 312 312 312 313 313 312 309 309 312 313 313 313 315 314 316
303 303 298 299 296 299 299 300 301 300 299 300 299 298 299 308 324 328 329 330 329 328 327 328 326 325 324 323 321 318 308 308 308 309 312 312 312 313 313 312 308 309 313 315 314 313 314 315 317
293 297 297 297 294 298 298 300 300 299 297 299 300 298 298 298 305 320 328 329 329 329 329 329 327 325 324 323 322 320 311 308 308 308 311 312 312 313 313 312 309 310 312 315 314 314 314 316 318
289 291 293 291 291 291 291 292 296 295 298 298 298 299 300 301 298 302 309 326 328 329 329 328 327 325 324 323 323 321 313 309 308 308 311 312 312 313 313 312 309 310 312 316 314 314 315 317 318
289 289 289 289 289 290 290 291 292 293 292 293 295 297 299 300 301 301 302 305 318 327 328 329 327 326 325 323 323 321 314 311 309 308 310 312 312 313 313 312 310 311 313 316 315 315 316 317 318
289 289 289 289 290 291 291 291 292 292 291 291 292 293 294 297 299 301 302 303 309 322 326 327 326 325 324 321 320 317 313 311 310 309 309 312 312 313 313 313 311 310 312 316 316 316 317 317 318
291 291 290 290 291 290 290 292 292 292 292 292 292 292 292 293 296 299 300 302 306 318 324 326 326 324 324 322 322 318 316 312 310 309 309 311 312 312 313 313 312 311 312 315 316 317 317 316 317
290 292 292 292 291 290 290 288 291 292 291 293 294 293 294 296 297 298 300 300 303 317 323 325 325 324 324 322 320 317 317 312 309 308 309 310 311 312 313 313 312 311 312 315 316 317 317 316 316
290 291 292 292 291 290 291 290 291 291 293 293 293 293 295 297 298 298 300 301 300 308 316 323 325 324 322 321 320 318 317 310 308 309 309 310 311 312 312 314 312 311 312 315 316 317 317 317 315
289 290 290 291 291 291 292 292 291 291 292 294 294 295 296 295 297 297 298 300 302 303 311 320 324 325 322 321 321 319 316 313 311 309 309 309 311 311 312 313 313 313 311 315 316 316 316 316 316
290 291 291 292 292 287 293 293 292 292 293 294 295 295 296 296 296 297 298 299 300 301 308 321 324 325 322 320 319 318 316 313 311 309 308 309 310 311 312 313 314 313 311 314 315 315 315 316 316
290 290 283 285 283 289 291 293 292 293 294 294 294 295 296 298 299 301 301 301 301 299 306 320 323 324 323 319 318 317 317 315 314 311 308 308 309 310 311 312 314 313 313 314 315 315 315 315 316
291 291 289 289 292 292 292 294 293 294 294 295 294 296 296 297 298 300 301 301 301 299 303 318 323 323 323 320 317 317 316 314 314 314 310 308 308 309 311 311 312 314 313 313 314 314 315 315 315
292 290 292 294 291 293 293 292 292 294 292 294 295 295 295 295 299 300 301 301 300 300 299 312 321 323 323 322 319 316 315 314 312 313 313 309 308 308 309 311 311 313 314 314 314 314 315 315 315
288 290 288 290 284 289 291 291 291 291 292 294 295 295 294 294 295 296 299 301 302 300 299 301 317 322 323 323 320 318 315 314 314 312 312 310 309 308 308 310 311 311 313 314 315 315 315 315 315
288 291 285 285 290 292 290 290 290 291 293 294 295 294 294 295 296 296 301 301 301 300 301 300 305 319 322 323 322 319 315 313 312 311 313 311 309 309 308 309 311 310 312 313 314 315 315 314 314
284 287 288 283 286 289 290 290 291 292 293 294 293 294 295 295 297 297 300 299 300 301 302 301 301 310 320 322 322 319 315 313 312 310 311 311 309 309 309 308 310 310 311 312 314 315 314 314 314
Wind_Speed
12 10 3 4 3 4 2 4 1 6 6 4 5 2 3 1 4 4 2 9 19 26 25 20 17 13 13 12 11 10 10 10 9 9 8 8 8 8 8 8 8 8 9 9 10 11 10 10 10
9 4 3 2 4 1 4 3 4 2 4 7 4 2 1 0 2 5 11 9 20 27 24 20 16 13 12 11 11 10 10 10 9 9 8 8 7 8 8 8 8 9 9 11 11 11 10 10 10
4 4 3 4 3 5 4 4 3 4 8 3 1 2 2 2 2 9 3 17 22 27 24 19 13 12 11 11 10 10 10 10 9 9 8 7 7 8 8 8 9 10 10 11 12 12 12 12 12
3 6 4 4 5 6 5 1 3 9 4 1 1 2 1 3 4 8 15 20 25 25 22 16 12 11 11 11 10 10 10 10 9 8 7 7 7 7 8 9 9 9 10 10 10 11 12 12 12
5 3 3 1 5 5 5 4 4 5 5 4 2 2 2 4 4 14 19 23 28 25 21 15 13 13 12 11 10 10 10 10 10 8 7 7 7 7 8 9 10 10 10 10 8 10 11 12 12
4 3 3 4 5 5 6 6 3 2 4 7 1 3 1 1 10 14 22 22 26 27 21 17 13 13 12 11 11 10 10 10 9 9 8 7 8 8 9 9 10 10 10 12 10 11 13 11 12
6 4 3 3 3 5 4 5 1 3 5 4 2 2 1 3 8 17 20 25 24 24 22 18 15 15 13 12 11 11 10 10 10 10 9 9 8 9 8 8 9 10 10 10 10 11 12 11 12
4 4 4 4 2 4 4 8 3 5 3 4 2 3 3 4 13 17 20 23 24 23 21 20 16 16 15 14 13 12 11 11 11 11 10 9 9 8 9 10 9 10 10 11 10 11 13 13 14
3 4 2 3 4 2 6 7 7 3 3 4 2 2 3 10 17 18 19 20 21 21 22 21 18 17 16 15 14 13 12 10 10 11 11 11 10 9 10 11 10 9 11 11 12 13 13 12 14
4 4 7 2 1 4 6 6 7 6 8 4 3 1 5 14 20 16 16 15 20 22 22 22 20 18 18 16 15 13 12 11 12 11 11 10 9 8 10 10 7 8 11 13 14 13 12 11 13
1 5 0 2 5 5 6 7 6 5 7 3 4 3 3 6 12 14 17 19 22 23 24 25 23 19 19 18 16 15 13 13 13 11 11 10 9 9 10 10 9 10 12 14 13 13 12 12 14
1 4 4 5 8 6 7 8 8 6 8 7 6 6 5 8 11 15 16 18 20 23 26 28 26 23 21 19 18 16 15 15 14 12 12 11 10 9 9 9 10 11 12 13 13 13 13 16 17
2 6 7 9 7 7 8 7 7 8 15 12 9 5 7 11 16 18 20 21 21 22 26 28 28 26 23 21 19 18 17 15 14 13 13 11 11 10 10 10 10 13 12 12 13 13 14 17 17
3 5 8 7 13 5 10 7 3 7 10 10 9 11 8 10 18 18 18 19 23 25 27 30 31 29 25 23 21 20 18 16 15 14 13 12 11 11 11 11 12 15 13 13 13 14 17 16 18
3 5 5 9 14 5 15 5 5 4 9 11 9 9 10 9 16 20 26 26 26 27 27 33 33 32 29 25 22 21 19 18 17 15 14 14 13 12 12 11 13 16 15 14 15 18 17 18 21
6 5 5 5 18 6 7 7 6 11 18 19 14 10 8 10 12 23 22 26 28 27 29 33 34 34 31 28 24 22 21 20 18 18 16 15 15 13 14 13 14 17 16 17 17 20 20 19 21
8 3 4 11 10 10 10 10 8 25 19 21 18 15 14 15 10 23 25 29 29 34 31 34 35 35 34 30 26 23 22 22 20 19 18 18 17 16 14 14 16 19 17 19 21 21 22 21 22
3 4 4 5 8 11 18 23 13 13 19 21 21 21 15 17 19 20 24 27 32 33 34 34 36 36 35 33 28 26 24 23 22 21 20 20 19 18 17 16 17 20 19 21 22 23 22 23 22
2 3 6 4 3 15 8 26 24 18 20 20 19 21 22 15 21 23 23 24 29 31 31 32 35 38 37 36 32 30 30 27 25 23 22 22 21 21 19 18 18 21 20 23 24 24 27 25 23
3 3 4 9 12 11 10 29 24 20 12 14 16 18 19 16 16 18 21 22 24 30 32 34 36 38 41 41 38 29 31 29 27 25 24 23 23 23 22 21 20 23 23 24 25 25 20 17 13
4 3 4 7 15 7 11 11 5 9 8 9 8 11 13 15 16 18 15 20 26 28 30 33 36 40 44 41 36 27 26 24 27 27 27 27 26 25 24 22 21 24 25 27 27 25 19 14 15
4 4 8 12 11 4 9 8 6 8 15 9 13 10 12 13 12 13 13 19 23 30 32 35 37 38 41 43 42 39 33 21 26 35 33 30 28 27 26 24 23 25 27 28 27 23 19 18 12
5 10 13 11 8 6 2 2 7 8 6 16 21 18 20 15 15 14 15 25 29 28 33 35 36 37 38 46 46 44 32 32 28 31 34 32 30 29 29 27 27 24 29 29 26 24 17 14 11
10 8 5 1 2 3 3 1 7 5 15 20 19 20 21 24 23 21 26 26 26 29 30 30 32 35 36 42 44 45 39 34 32 34 36 37 34 33 32 31 30 29 30 31 26 23 18 15 9
15 7 5 6 5 3 4 7 9 16 20 17 21 18 20 18 17 20 21 23 30 25 28 29 31 33 34 39 41 44 42 42 42 40 38 36 38 38 37 35 35 34 33 31 25 21 20 20 15
5 3 3 3 4 11 10 6 5 18 19 15 20 19 26 26 24 20 20 25 32 27 26 30 30 33 35 37 39 42 42 41 42 44 41 41 42 41 40 38 38 37 35 32 28 23 21 19 18
4 3 4 4 6 6 4 7 12 14 16 19 23 25 26 29 23 23 24 27 28 29 28 30 31 35 38 38 38 39 41 40 39 44 44 44 43 41 42 41 39 39 36 34 31 27 23 21 20
3 4 4 2 4 5 6 13 11 17 20 27 29 30 32 29 30 26 24 25 30 28 27 30 33 36 38 42 41 39 39 40 43 42 44 43 45 43 42 42 40 40 36 34 33 30 26 23 22
4 2 3 2 2 4 6 5 10 20 21 26 28 29 29 32 26 22 20 27 28 28 26 26 29 33 36 40 41 40 40 40 40 40 45 46 45 45 43 44 42 41 38 35 33 31 28 26 25
5 3 4 3 6 7 13 12 16 11 25 20 26 27 27 29 22 19 19 24 25 24 23 25 27 33 38 39 39 41 37 39 41 42 45 46 45 46 45 45 44 41 40 37 34 32 29 27 26
Wind_Direction
336 336 344 45 55 62 246 259 248 326 341 305 292 187 203 355 159 203 357 164 163 163 166 166 163 168 162 150 138 132 120 112 107 99 93 89 82 75 67 63 56 46 33 27 25 20 14 10 7
343 355 44 76 97 72 269 245 194 233 269 300 276 338 333 261 74 115 128 157 154 163 164 167 167 171 163 150 142 135 122 119 112 105 102 95 86 76 71 65 57 49 39 33 33 29 26 28 27
7 23 87 100 120 188 222 214 204 269 271 259 288 86 9 3 25 163 169 157 153 163 165 165 175 178 165 152 145 136 130 122 116 110 107 99 90 83 75 67 58 48 45 52 43 40 43 41 38
351 16 38 99 217 257 227 109 291 331 337 116 22 327 7 346 176 183 159 164 157 165 167 163 176 179 167 155 148 140 135 125 121 117 112 103 95 86 77 72 61 53 54 45 40 37 37 37 40
41 56 72 105 250 259 260 267 294 314 287 291 176 258 275 12 142 151 166 166 163 166 166 170 177 167 166 160 152 144 141 129 126 124 118 108 100 93 83 74 66 48 53 42 54 40 36 44 44
45 91 68 249 247 277 280 256 295 280 300 294 63 149 292 63 137 158 166 166 169 165 169 172 186 166 169 164 158 150 145 136 133 129 123 116 109 97 88 80 62 58 55 60 67 52 52 53 48
116 91 195 257 269 310 272 328 280 306 290 322 109 154 324 185 171 166 169 172 173 170 171 171 183 167 171 177 168 158 151 140 136 132 127 122 114 103 95 83 68 60 65 68 66 60 61 60 48
104 94 145 239 238 278 322 333 16 29 299 303 13 247 269 199 173 170 167 174 173 176 177 176 184 169 173 181 178 170 166 154 148 143 142 136 123 114 101 91 82 72 70 73 73 75 69 62 66
131 70 201 242 172 285 3 3 330 283 324 330 357 286 308 175 172 160 161 172 177 183 185 184 185 180 182 185 184 180 176 168 163 148 138 135 123 111 110 95 88 84 79 82 84 84 75 68 74
88 123 212 235 5 359 310 24 318 354 344 320 318 356 1 167 168 168 178 177 180 185 193 190 187 185 185 189 190 187 180 174 167 157 148 148 136 118 115 116 100 100 97 92 95 88 80 73 77
75 181 63 61 45 357 298 315 340 343 308 228 302 332 137 211 199 192 194 195 197 192 192 197 192 195 192 193 194 193 186 179 173 168 161 158 145 133 124 117 113 116 102 101 100 95 82 71 82
52 43 43 331 332 333 312 314 312 202 242 281 303 278 202 208 214 212 206 206 196 201 203 202 201 198 200 198 200 198 193 186 181 179 172 172 160 147 133 121 119 127 109 109 105 98 85 72 74
38 346 332 313 329 304 282 254 249 267 275 282 298 295 209 233 232 231 226 220 214 207 210 208 205 204 203 202 201 201 198 193 187 184 175 176 175 157 142 133 126 132 117 114 111 105 90 73 71
311 310 305 340 355 18 350 282 178 263 12 341 327 292 257 231 231 229 228 227 220 219 219 215 207 206 206 206 205 205 202 196 194 192 188 179 180 166 151 140 132 138 127 117 115 109 89 82 81
331 1 340 32 353 25 336 290 213 301 7 338 326 307 305 275 262 233 227 224 223 225 221 219 212 210 207 206 206 206 205 202 195 192 189 185 184 174 159 146 137 143 131 122 118 107 95 91 90
27 49 3 359 5 338 28 260 297 342 339 321 318 311 297 280 277 266 253 237 224 221 220 223 215 213 211 207 207 205 203 206 200 190 194 189 186 181 168 155 146 149 135 127 122 111 105 100 96
23 16 2 321 350 347 34 294 284 321 324 313 308 304 301 299 274 276 272 253 241 233 221 221 219 215 212 209 210 209 205 205 204 195 194 193 190 185 176 165 152 156 142 134 129 118 116 111 102
335 347 318 294 319 348 310 283 289 299 291 286 291 291 282 286 282 272 274 274 258 239 228 220 218 217 212 208 207 208 206 205 205 200 196 192 191 187 179 171 159 161 149 140 132 128 125 117 110
204 229 268 272 304 335 309 288 296 301 283 278 280 283 286 271 280 280 276 270 262 241 223 214 213 215 210 202 198 200 203 203 202 202 198 195 195 191 184 178 171 170 160 149 143 136 130 117 107
335 311 335 306 336 328 298 295 304 287 275 279 282 283 280 288 286 282 276 263 252 241 225 218 214 208 210 205 203 201 204 204 204 201 199 198 197 197 190 187 179 173 165 159 154 151 140 129 134
2 47 316 297 325 278 335 286 8 325 323 322 305 276 280 279 278 283 275 258 257 233 222 215 212 211 209 204 198 195 199 205 203 201 200 199 198 199 196 193 186 181 175 166 162 163 155 140 134
350 348 309 304 335 309 43 290 355 2 339 335 327 319 313 308 301 287 285 277 243 241 237 223 213 210 202 202 197 194 194 189 201 201 200 197 198 199 199 196 189 182 180 173 172 168 169 161 139
282 312 290 294 292 329 339 293 276 343 336 328 321 322 320 311 314 304 298 292 281 254 240 226 213 206 198 201 200 198 192 199 201 206 200 198 198 200 200 198 193 186 183 178 178 178 183 172 146
304 298 326 80 149 41 245 127 301 359 310 312 313 323 321 320 315 314 309 293 280 271 248 224 211 207 199 197 197 197 193 192 194 200 199 199 199 200 201 200 199 191 184 184 184 188 191 190 182
3 6 359 5 11 231 346 304 265 294 289 296 324 324 329 334 334 328 327 323 302 267 245 221 209 208 203 199 197 199 197 199 200 199 196 194 197 201 200 199 200 200 194 191 195 197 197 203 207
340 42 103 304 320 295 282 245 263 292 308 335 338 342 327 323 318 313 308 312 313 279 250 223 211 210 207 202 199 201 198 198 199 202 197 200 199 200 201 200 202 203 203 203 204 206 206 206 212
343 21 295 272 254 271 242 282 299 298 349 341 336 337 330 323 316 312 312 309 306 296 263 231 213 209 207 207 203 202 197 196 194 201 207 203 203 202 203 202 203 204 206 208 208 211 212 210 211
96 280 24 352 343 303 284 301 286 330 332 337 335 332 325 318 307 305 308 304 302 290 283 252 223 213 206 204 205 203 200 198 198 197 198 202 204 205 203 203 205 204 206 207 208 212 215 212 209
347 58 6 134 211 278 301 282 295 308 330 338 326 321 320 315 301 297 303 308 299 289 287 273 243 219 212 207 203 203 199 197 194 193 199 204 204 205 204 203 204 205 205 206 209 211 210 212 209
166 200 119 111 282 270 272 273 274 326 326 332 320 324 322 327 313 306 307 306 301 296 291 278 256 231 214 207 202 200 198 192 190 193 196 200 201 205 205 203 203 205 205 205 205 206 207 206 205